TimeCST,TemperatureF,Dew PointF,Humidity,Sea Level PressureIn,VisibilityMPH,Wind Direction,Wind SpeedMPH,Gust SpeedMPH,PrecipitationIn,Events,Conditions,WindDirDegrees,DateUTC
12:58 AM,31.8,27.0,82,30.40,10.0,East,4.6,-,N/A,,Clear,100,2013-11-29 06:58:00
1:58 AM,30.4,26.6,86,30.40,10.0,East,5.8,-,N/A,,Clear,100,2013-11-29 07:58:00
2:58 AM,30.6,26.6,85,30.40,10.0,East,6.9,-,N/A,,Clear,100,2013-11-29 08:58:00
3:58 AM,31.5,27.9,87,30.38,10.0,East,6.9,-,N/A,,Clear,100,2013-11-29 09:58:00
4:58 AM,29.8,27.0,89,30.40,10.0,ESE,5.8,-,N/A,,Clear,110,2013-11-29 10:58:00
5:58 AM,27.7,25.9,93,30.41,10.0,ESE,4.6,-,N/A,,Clear,110,2013-11-29 11:58:00
6:58 AM,28.8,26.8,92,30.43,10.0,East,5.8,-,N/A,,Clear,100,2013-11-29 12:58:00
7:58 AM,30.0,27.7,91,30.43,10.0,ESE,5.8,-,N/A,,Clear,110,2013-11-29 13:58:00
8:58 AM,34.7,30.4,84,30.44,10.0,SE,6.9,-,N/A,,Clear,140,2013-11-29 14:58:00
9:58 AM,39.9,32.0,73,30.44,10.0,SSE,9.2,-,N/A,,Clear,150,2013-11-29 15:58:00
10:58 AM,46.8,34.9,63,30.41,10.0,SSE,9.2,-,N/A,,Clear,160,2013-11-29 16:58:00
11:58 AM,54.0,34.5,48,30.38,10.0,South,16.1,-,N/A,,Clear,180,2013-11-29 17:58:00
12:58 PM,56.7,34.0,42,30.33,10.0,South,12.7,-,N/A,,Clear,180,2013-11-29 18:58:00
1:58 PM,58.6,32.7,38,30.29,10.0,South,17.3,-,N/A,,Clear,180,2013-11-29 19:58:00
2:58 PM,59.7,32.5,36,30.26,10.0,South,16.1,24.2,N/A,,Clear,180,2013-11-29 20:58:00
3:58 PM,59.2,32.9,37,30.25,10.0,South,17.3,-,N/A,,Clear,170,2013-11-29 21:58:00
4:58 PM,55.6,33.8,44,30.26,10.0,South,12.7,-,N/A,,Clear,170,2013-11-29 22:58:00
5:58 PM,48.2,35.1,60,30.25,10.0,South,8.1,-,N/A,,Clear,170,2013-11-29 23:58:00
6:58 PM,46.2,34.7,64,30.27,10.0,SSE,9.2,-,N/A,,Clear,160,2013-11-30 00:58:00
7:58 PM,42.4,34.0,72,30.28,10.0,SE,5.8,-,N/A,,Clear,140,2013-11-30 01:58:00
8:58 PM,39.6,34.0,80,30.29,10.0,SE,5.8,-,N/A,,Clear,140,2013-11-30 02:58:00
9:58 PM,39.0,34.3,83,30.27,10.0,SSE,6.9,-,N/A,,Clear,150,2013-11-30 03:58:00
10:58 PM,41.4,35.4,79,30.26,10.0,SE,5.8,-,N/A,,Clear,130,2013-11-30 04:58:00
11:58 PM,37.9,34.3,87,30.26,10.0,SE,6.9,-,N/A,,Clear,130,2013-11-30 05:58:00